Location: Zagreb
(45.8000°N, 16.0000°E)
Time: 09:44:56
(UTC+01:00)

deb Explorer IX - All Passes

Search period start: 28 January 2022 00:00
Search period end: 07 February 2022 00:00
Orbit: 544 x 1082 km, 38.8° (Epoch: 27 January)

Date Brightness Start Highest point End Pass type
(mag) Time Alt. Az. Time Alt. Az. Time Alt. Az.
28 Jan - 11:23:18 10° SSW 11:26:49 19° SSE 11:30:03 10° ESE daylight
28 Jan - 13:08:42 10° WSW 13:12:48 32° S 13:16:32 10° ESE daylight
28 Jan - 14:55:08 10° WSW 14:58:45 26° SSW 15:02:12 10° SE daylight
28 Jan - 16:43:19 10° SW 16:44:24 11° SSW 16:45:30 10° SSW daylight
29 Jan - 10:57:16 10° SSW 11:00:57 20° SSE 11:04:20 10° ESE daylight
29 Jan - 12:42:43 10° WSW 12:46:58 32° S 12:50:48 10° ESE daylight
29 Jan - 14:29:13 10° WSW 14:32:56 27° SSW 14:36:26 10° SE daylight
29 Jan - 16:17:19 10° SW 16:18:35 11° SSW 16:19:51 10° S daylight
30 Jan - 10:31:12 10° SSW 10:35:05 21° SSE 10:38:36 10° ESE daylight
30 Jan - 12:16:42 10° WSW 12:21:07 33° S 12:25:03 10° ESE daylight
30 Jan - 14:03:15 10° WSW 14:07:06 28° SSW 14:10:41 10° SE daylight
30 Jan - 15:51:18 10° SW 15:52:45 12° SSW 15:54:12 10° S daylight
31 Jan - 10:05:07 10° SSW 10:09:10 21° SSE 10:12:51 10° ESE daylight
31 Jan - 11:50:39 10° WSW 11:55:15 34° S 11:59:18 10° ESE daylight
31 Jan - 13:37:15 10° WSW 13:41:15 29° SSW 13:44:56 10° SE daylight
31 Jan - 15:25:14 10° SW 15:26:55 12° SSW 15:28:34 10° S daylight
01 Feb - 09:38:59 10° SSW 09:43:15 22° SSE 09:47:05 10° ESE daylight
01 Feb - 11:24:34 10° WSW 11:29:21 35° S 11:33:33 10° ESE daylight
01 Feb - 13:11:13 10° WSW 13:15:24 30° SSW 13:19:11 10° SE daylight
01 Feb - 14:59:07 10° WSW 15:01:04 13° SSW 15:02:56 10° S daylight
02 Feb - 09:12:50 10° SSW 09:17:18 22° SSE 09:21:19 10° ESE daylight
02 Feb - 10:58:28 10° WSW 11:03:26 36° S 11:07:47 10° ESE daylight
02 Feb - 12:45:09 10° WSW 12:49:32 31° SSW 12:53:26 10° SE daylight
02 Feb - 14:33:00 10° WSW 14:35:12 13° SSW 14:37:19 10° S daylight
03 Feb - 08:46:41 10° SSW 08:51:19 23° SSE 08:55:31 10° ESE daylight
03 Feb - 10:32:20 10° WSW 10:37:30 37° S 10:42:00 10° ESE daylight
03 Feb - 12:19:03 10° WSW 12:23:38 32° SSW 12:27:41 10° SE daylight
03 Feb - 14:06:51 10° WSW 14:09:19 14° SSW 14:11:41 10° S daylight
04 Feb - 08:20:30 10° SSW 08:25:20 23° SSE 08:29:41 10° ESE daylight
04 Feb - 10:06:10 10° WSW 10:11:33 38° S 10:16:12 10° ESE daylight
04 Feb - 11:52:55 10° WSW 11:57:43 34° SSW 12:01:55 10° SE daylight
04 Feb - 13:40:41 10° WSW 13:43:26 15° SSW 13:46:01 10° S daylight
05 Feb - 07:54:19 10° SSW 07:59:19 24° SSE 08:03:50 10° ESE daylight
05 Feb - 09:39:58 10° WSW 09:45:34 39° S 09:50:24 10° ESE daylight
05 Feb - 11:26:45 10° WSW 11:31:46 35° SSW 11:36:08 10° SE daylight
05 Feb - 13:14:29 10° WSW 13:17:31 16° SSW 13:20:21 10° S daylight
06 Feb - 07:28:07 10° SSW 07:33:17 24° SSE 07:37:57 10° ESE daylight
06 Feb - 09:13:46 10° WSW 09:19:33 39° S 09:24:34 10° ESE daylight
06 Feb - 11:00:35 10° WSW 11:05:49 36° SSW 11:10:21 10° SE daylight
06 Feb - 12:48:16 10° WSW 12:51:36 17° SSW 12:54:40 10° SSE daylight
